Theta_e
367 370 370 369 370 370 370 372 371 368 367 366 365 365 366 364 361 358 361 359 358 354 352 351 351 348 344 346 346 347 348 346 346 345 347 346 346 345 344 344 341 340 342 341 339 339 340 339 340 341 342 340 339 338 337 338 339 337 337 337 335 337 335 333 329 329 333 336 334 332 334 336 335 338 337 337 337 337 339 339 340 339 340 339 339
365 370 370 368 369 369 370 371 371 370 367 367 366 366 365 364 364 362 361 360 357 353 352 350 350 348 346 346 348 347 348 348 344 345 344 344 344 342 342 343 342 341 342 340 340 339 340 340 340 340 341 340 338 338 337 335 335 334 334 334 334 335 337 333 330 329 328 333 332 335 334 334 331 338 336 335 336 338 337 338 339 339 339 339 338
362 370 370 369 369 369 369 371 371 370 367 365 364 363 364 364 364 361 360 357 356 354 352 349 349 349 347 347 348 348 349 347 346 345 344 343 344 342 342 343 341 340 339 339 339 340 339 340 339 339 339 338 338 338 337 337 336 336 336 337 336 335 337 336 332 329 329 330 334 332 333 334 334 334 337 336 338 337 337 337 336 336 337 337 337
358 367 369 367 369 370 370 370 369 368 366 365 362 361 360 361 362 361 360 356 354 355 353 349 349 349 346 348 348 347 347 346 346 346 344 343 343 345 346 343 341 340 339 340 339 339 339 339 338 338 339 337 337 337 337 337 337 338 337 338 338 337 338 338 337 334 332 330 334 334 334 334 335 336 336 336 335 336 336 337 337 335 335 335 335
356 364 366 365 367 368 369 368 368 368 365 362 361 359 356 359 361 360 358 355 355 353 352 350 349 348 346 348 346 345 345 346 346 344 343 342 343 343 344 343 341 341 340 340 340 340 340 339 338 339 338 336 336 335 336 336 336 336 336 337 337 336 336 336 336 335 333 331 332 335 336 336 336 335 335 332 333 334 335 335 335 335 336 336 335
353 360 365 364 366 367 368 368 368 366 363 361 360 358 355 360 360 359 357 354 355 352 351 347 348 350 350 347 345 348 347 347 346 343 340 341 343 343 343 342 341 341 340 339 340 340 340 340 339 339 338 336 335 335 337 335 335 335 335 337 337 338 338 338 338 336 335 334 335 335 337 335 334 333 333 333 330 330 331 333 335 335 334 332 332
355 357 364 363 365 366 368 368 367 366 365 362 361 359 356 357 357 357 356 354 353 352 348 348 349 351 348 342 344 348 345 346 344 343 342 343 344 343 341 341 340 341 340 339 339 340 339 339 339 339 338 337 336 335 335 335 335 336 337 337 338 338 336 335 335 333 332 332 333 333 332 333 331 328 332 333 333 331 329 331 331 331 334 332 331
354 355 362 365 366 367 369 370 370 369 365 365 364 361 358 355 355 357 357 353 350 350 347 347 350 351 346 344 349 350 347 342 342 344 343 342 342 342 343 341 339 340 340 340 340 338 338 338 336 337 337 338 337 337 336 335 337 336 340 341 340 337 334 334 333 331 331 330 329 329 330 330 331 332 331 331 329 330 330 328 325 326 329 333 334
357 356 361 366 368 371 373 372 370 369 366 366 363 362 361 359 356 355 358 355 351 349 350 350 351 350 350 349 350 347 343 340 343 343 342 342 342 342 343 343 340 340 340 340 341 340 339 338 337 337 340 342 343 343 341 343 342 339 337 336 336 336 335 335 333 332 330 329 328 330 327 327 328 329 327 327 326 325 328 329 327 327 328 328 331
363 360 361 367 370 372 372 372 371 370 367 365 365 364 360 358 355 356 356 355 353 351 353 352 349 346 345 346 345 341 341 343 336 328 334 342 343 342 343 342 342 341 341 340 340 339 339 338 339 342 345 341 345 345 341 339 339 338 339 337 336 337 336 334 332 331 330 327 326 326 324 324 324 327 326 327 329 329 327 328 325 328 329 327 329
362 363 367 370 372 373 372 370 369 368 366 365 365 364 362 360 360 361 358 355 353 353 351 347 347 346 348 347 342 340 339 337 328 326 328 333 342 343 341 341 342 342 341 341 340 340 340 340 341 339 345 341 343 343 342 339 337 334 332 332 334 337 333 331 330 330 328 327 326 326 325 325 326 327 326 326 327 327 326 328 328 327 325 323 321
362 368 368 371 372 371 370 369 368 367 366 365 364 363 362 361 359 357 355 353 352 352 347 350 349 346 344 341 339 339 339 329 325 325 327 328 334 344 341 341 341 342 342 340 340 340 339 338 338 343 343 346 345 344 342 337 333 332 332 331 330 329 328 331 329 328 328 327 326 326 327 326 327 328 327 326 326 327 329 327 327 325 324 323 323
367 368 369 371 372 371 370 368 368 365 364 363 363 363 362 360 359 357 355 354 353 352 351 348 344 343 342 339 336 337 337 327 323 324 326 326 328 335 341 341 340 339 339 339 339 339 341 346 346 343 345 341 341 343 343 343 339 332 331 331 330 327 325 323 324 332 333 329 327 326 327 327 327 329 332 330 330 327 327 325 326 325 325 323 323
367 368 370 371 371 370 368 368 367 365 363 362 361 359 359 358 357 356 355 355 355 353 350 347 345 344 341 341 338 337 337 326 322 322 323 324 326 331 340 339 339 339 339 338 337 339 345 340 342 344 344 343 342 342 341 342 342 342 340 337 336 335 328 323 322 322 326 330 331 328 330 332 330 332 331 331 328 326 324 323 324 323 323 323 326
368 370 370 370 371 369 367 367 366 364 363 360 358 357 357 358 357 355 353 352 353 350 348 346 344 342 339 337 336 336 337 325 321 321 321 321 323 328 340 341 341 340 340 339 339 339 341 340 343 345 343 341 342 342 342 342 341 336 334 332 331 334 335 332 333 333 333 331 332 332 331 330 330 330 330 328 326 325 326 325 325 324 324 324 323
368 370 369 369 369 369 367 366 366 364 360 358 357 356 356 357 356 355 353 352 352 349 347 345 342 341 340 339 338 339 338 321 320 320 319 319 323 336 340 343 342 340 340 340 340 344 346 341 340 341 342 342 342 336 339 340 340 335 333 332 332 332 332 334 329 329 332 330 329 329 328 327 323 329 328 325 325 326 325 325 324 323 320 318 317
368 370 369 369 369 369 367 365 364 362 359 357 356 355 355 355 354 355 353 350 348 346 346 342 343 341 340 340 339 339 338 326 318 317 318 318 323 339 341 342 343 342 341 343 344 347 345 344 344 342 340 340 336 327 328 333 336 335 332 331 330 330 330 332 326 321 323 320 318 317 316 315 315 314 312 312 321 323 324 322 320 318 316 314 315
368 370 370 371 370 370 368 366 364 361 360 358 356 353 354 353 352 354 351 349 347 346 344 342 342 342 340 339 338 338 338 332 315 315 315 316 327 340 342 342 343 344 344 344 346 345 343 342 342 340 340 340 323 320 322 331 333 333 330 328 327 328 328 329 329 330 320 317 317 316 316 317 317 315 314 313 313 315 324 320 321 319 316 316 314
368 369 370 371 370 369 368 366 365 362 360 358 354 353 353 353 352 352 349 349 348 349 346 344 341 339 337 335 337 336 337 330 313 314 314 314 329 342 343 342 343 342 341 342 343 343 344 341 338 338 337 335 315 317 318 328 332 331 329 327 326 326 328 329 328 328 329 328 330 332 332 324 330 331 331 321 318 319 325 325 324 322 318 317 315
368 371 371 371 370 368 366 365 364 363 360 358 355 354 354 351 350 348 348 347 346 345 344 342 340 337 336 336 335 336 337 339 326 313 312 313 319 344 345 341 337 341 342 341 341 341 338 337 336 326 322 315 312 311 313 315 329 329 328 326 325 325 330 330 329 327 327 325 325 325 325 325 324 325 324 324 325 331 329 327 327 325 320 314 314
370 371 370 368 367 366 365 365 363 363 361 358 354 352 351 349 348 347 345 345 344 343 340 339 338 336 335 335 334 332 334 336 337 311 310 311 316 326 344 342 340 337 343 341 337 333 333 334 336 325 314 311 308 307 307 309 315 326 327 327 327 321 319 327 327 326 326 325 325 324 324 323 322 322 322 322 321 321 321 321 320 319 317 315 313
370 369 368 367 365 363 363 363 363 360 360 358 355 352 352 351 348 346 344 343 342 340 340 338 338 336 336 336 337 337 338 337 340 315 312 310 313 317 339 341 343 343 342 339 336 334 335 338 339 321 311 309 307 303 304 307 310 320 326 305 305 311 324 325 325 325 323 322 321 320 320 319 319 319 319 319 319 321 320 319 319 318 317 315 312
368 367 366 364 362 361 361 361 359 359 355 355 354 351 352 350 350 347 345 342 340 338 337 338 339 339 338 341 342 342 344 337 324 325 310 310 312 315 320 336 325 343 339 335 333 334 334 334 333 311 308 304 302 302 302 304 308 317 309 306 308 308 318 323 323 323 322 320 320 319 319 318 318 317 318 318 318 320 318 319 318 316 316 315 317
367 364 363 362 360 359 358 358 360 358 356 353 351 351 349 349 347 345 343 341 338 338 338 339 338 337 337 340 341 342 341 337 324 321 318 311 308 310 314 319 321 336 337 334 334 334 336 336 322 305 301 297 299 302 305 306 316 302 303 306 309 315 321 322 320 321 321 319 319 319 318 317 318 317 317 318 317 320 319 318 317 317 318 318 319
362 360 359 359 358 357 356 356 356 355 353 352 352 350 349 347 344 343 342 339 338 338 339 340 339 339 338 338 338 339 341 337 334 324 318 312 310 309 312 314 315 317 333 334 335 324 312 304 300 301 301 300 301 303 305 305 304 305 305 305 315 322 322 321 320 320 318 318 316 317 317 318 318 318 319 320 320 319 318 317 318 318 317 318 318
356 355 355 355 354 354 352 352 353 353 352 351 351 350 347 344 342 341 340 339 339 338 339 339 339 339 339 339 337 336 337 336 331 325 321 317 317 313 312 313 315 318 325 328 313 308 306 304 303 302 304 307 316 320 323 324 311 310 311 313 322 320 319 319 320 318 317 316 316 315 315 316 316 318 319 318 317 316 315 314 314 313 313 313 313
352 352 353 353 353 353 351 349 349 349 350 349 348 347 345 343 341 339 340 339 340 340 340 339 338 337 337 338 337 336 336 335 332 329 329 328 329 323 320 319 315 316 321 318 314 316 314 317 318 315 315 313 316 316 319 320 320 318 321 322 322 321 320 320 319 318 317 315 314 314 315 316 318 318 316 316 314 314 314 314 311 311 312 312 313
352 353 352 351 349 349 349 349 348 347 346 344 343 344 343 341 339 339 340 340 340 339 339 338 337 339 337 336 337 336 334 335 333 330 329 330 329 326 325 324 321 322 324 325 326 324 323 316 316 325 323 323 323 324 324 324 323 322 323 321 320 321 321 321 316 318 318 316 315 316 316 317 315 313 313 311 310 311 314 313 311 310 311 312 311
353 351 349 348 346 347 347 345 345 344 343 336 326 321 329 343 341 338 325 326 332 341 341 338 339 338 338 336 334 334 335 334 336 324 339 320 326 325 325 324 324 325 324 319 328 327 326 325 327 325 325 322 322 322 321 321 321 322 322 320 319 318 319 318 317 316 318 317 314 314 312 313 312 312 310 309 311 311 313 313 313 311 312 312 310
351 347 346 345 345 344 343 342 343 342 341 337 328 320 305 298 308 334 327 312 304 300 309 335 335 338 338 339 341 336 334 334 311 305 306 307 305 304 304 308 313 322 313 315 327 329 327 325 324 323 323 323 322 321 320 319 320 319 319 317 317 317 317 317 316 316 316 315 313 311 311 310 310 309 308 308 310 310 311 311 311 312 310 309 309
347 345 344 342 341 343 341 342 342 343 341 339 338 334 329 318 297 295 304 305 299 296 296 297 301 311 337 333 318 304 306 303 301 302 298 295 295 296 297 297 299 302 308 326 326 324 323 322 322 322 322 322 321 320 319 318 316 316 316 316 316 316 316 315 315 314 314 313 312 310 309 309 308 307 307 308 308 308 308 310 311 312 309 309 308
345 343 343 342 343 345 343 343 343 342 340 339 338 337 335 330 323 301 295 299 298 295 295 295 296 300 304 316 325 328 308 300 299 298 296 295 294 293 293 295 295 298 302 309 325 323 323 322 322 321 321 320 319 319 317 316 317 316 316 315 315 316 314 314 313 312 312 311 310 309 309 308 307 307 307 307 306 307 308 308 308 308 309 308 308
343 341 342 343 342 344 342 342 342 341 339 338 336 337 335 333 326 321 312 296 296 296 295 295 295 296 297 296 298 308 307 300 297 296 295 294 293 293 293 293 294 298 307 321 323 322 323 321 320 321 320 319 319 318 317 316 316 316 316 315 314 314 315 317 316 313 311 310 310 308 308 308 307 307 306 307 307 307 307 307 308 308 308 307 307
344 342 340 340 340 341 340 341 340 341 339 338 337 337 336 335 331 327 323 322 321 309 299 295 295 297 293 294 296 296 296 296 296 295 294 294 294 296 298 301 292 292 304 326 320 320 320 319 318 319 319 319 317 317 317 317 317 316 316 315 314 314 315 316 314 311 310 310 309 308 307 307 307 306 306 307 307 307 307 307 307 307 307 306 306
345 343 344 343 341 340 339 341 339 338 337 338 338 336 336 335 334 331 329 326 325 325 325 320 303 295 308 300 293 294 294 295 295 294 294 295 296 296 301 318 320 317 318 320 320 320 320 320 318 318 319 318 317 317 316 317 316 316 315 315 314 313 313 311 311 309 309 308 308 307 307 308 307 307 307 306 306 306 306 307 307 306 306 306 307
343 341 342 341 341 340 339 340 339 338 338 338 339 337 336 334 332 331 328 327 326 327 327 324 315 300 295 292 292 293 293 293 293 293 294 295 296 300 320 320 319 319 318 318 318 318 318 319 319 319 319 318 318 317 316 315 315 315 314 314 314 313 311 311 309 309 310 309 306 306 306 308 308 307 307 306 307 306 306 306 306 306 307 306 307
341 341 340 340 339 340 340 341 341 340 334 336 337 338 336 335 333 332 329 327 329 330 326 321 318 313 309 306 298 293 292 293 293 293 294 295 295 310 322 322 320 320 319 320 319 319 319 319 319 318 319 318 317 317 316 316 315 316 312 312 313 312 310 309 309 308 306 303 303 306 309 308 307 307 306 305 305 306 306 306 306 306 306 306 306
338 338 339 340 340 341 341 340 338 333 337 336 337 338 335 335 334 330 329 330 330 328 326 324 319 322 319 315 309 307 300 294 293 295 296 297 304 315 321 322 322 322 320 320 320 319 319 318 318 318 317 316 315 315 315 315 314 314 313 315 312 311 310 308 309 306 305 305 307 309 309 307 307 306 306 305 304 305 305 305 305 306 306 306 307
340 329 327 330 331 336 336 337 335 336 335 335 334 334 332 331 331 330 330 331 331 329 326 325 324 322 319 317 315 311 310 314 315 315 315 315 315 317 319 321 322 321 321 320 319 318 318 317 317 317 317 316 315 316 314 313 314 313 313 312 311 309 307 307 308 309 309 308 307 308 306 306 307 306 306 305 304 305 305 305 306 306 305 305 305
336 337 332 328 332 332 334 333 332 333 332 332 332 332 332 333 331 331 333 332 331 330 327 325 324 324 321 319 316 315 316 316 316 317 316 316 316 318 319 320 321 320 320 320 319 318 317 317 317 316 317 316 316 314 313 313 313 312 311 310 308 308 306 307 307 306 305 307 307 306 306 306 306 306 305 305 305 305 306 305 306 306 306 306 306
335 334 332 328 329 332 333 331 330 332 331 331 332 331 331 330 330 329 331 331 330 330 328 328 328 327 322 317 307 308 320 320 320 320 319 319 319 320 321 321 320 320 318 318 318 318 317 317 317 316 315 315 315 315 314 312 312 311 309 307 306 305 304 305 306 306 306 307 306 306 306 306 305 305 304 305 303 304 305 306 306 306 306 306 306
335 331 329 331 330 332 330 329 332 333 333 332 331 331 333 330 330 330 330 330 329 329 330 329 330 328 316 305 302 300 317 323 324 322 323 321 321 321 320 321 321 322 320 319 319 318 318 318 316 316 315 315 314 313 312 312 312 310 307 306 305 304 304 305 306 307 308 306 306 306 306 305 304 305 305 303 305 305 305 305 306 306 306 305 306
335 333 332 331 332 332 332 331 331 331 330 329 330 330 329 329 329 331 329 329 328 328 329 328 327 327 319 306 307 302 317 322 326 323 323 322 321 321 322 320 320 321 321 320 320 320 318 317 316 315 315 314 314 312 311 311 311 308 306 304 303 303 305 305 306 306 306 306 306 306 305 305 305 305 305 306 305 305 305 306 306 306 305 305 306
333 330 330 329 329 330 329 329 328 329 330 331 330 329 330 329 329 328 326 326 325 326 326 326 327 325 323 315 311 314 319 321 323 323 322 321 321 321 321 320 321 320 319 319 320 319 317 317 316 315 316 315 315 314 312 311 308 306 303 302 302 303 304 305 304 305 306 306 305 304 304 305 305 305 305 305 305 304 304 306 305 305 305 305 305
330 329 329 329 330 330 330 332 331 332 329 329 329 329 327 327 325 325 324 325 326 327 326 326 325 324 323 322 321 320 320 321 323 323 322 321 321 321 321 321 321 321 319 319 319 319 318 317 316 316 315 314 314 313 312 311 309 306 303 302 303 303 304 306 308 308 306 305 304 305 304 304 304 304 304 305 304 305 304 305 305 305 304 305 305
328 328 328 328 329 329 329 329 328 328 326 325 325 324 324 325 326 325 324 325 325 326 325 325 326 325 324 324 323 321 321 322 322 322 321 321 321 321 321 321 322 321 321 320 319 319 317 317 315 314 314 314 313 312 312 311 308 306 304 303 303 303 304 305 305 305 306 306 306 305 305 305 304 304 305 305 304 305 305 305 306 305 305 304 305
330 329 330 328 327 326 328 327 325 325 327 325 324 325 325 323 325 323 324 322 323 322 323 322 322 321 322 322 322 323 322 321 322 322 322 322 322 321 321 322 320 320 319 319 319 318 317 316 315 314 314 313 312 312 311 309 308 305 304 303 303 303 304 306 306 305 304 305 307 306 305 304 304 305 305 305 304 305 306 305 304 304 305 304 305
327 325 326 326 326 325 324 325 324 323 322 322 322 323 321 323 321 321 322 319 317 317 318 319 319 319 318 320 321 320 321 322 322 321 322 323 323 322 322 322 320 319 318 317 317 316 316 316 315 314 313 312 312 311 310 309 308 306 305 306 305 301 296 297 301 301 303 304 305 302 303 304 305 306 305 305 305 305 305 305 304 303 304 304 304
325 325 324 323 323 323 322 322 321 319 321 320 320 319 319 317 318 318 318 318 318 318 318 318 317 317 316 316 317 317 318 319 320 320 320 323 323 322 321 321 320 318 316 315 315 315 315 315 315 315 313 313 312 311 310 310 307 306 305 304 297 290 287 289 294 299 294 296 299 301 304 306 306 306 305 305 306 305 305 305 304 303 304 305 304
325 324 323 324 323 322 322 320 320 320 319 319 317 317 318 318 318 318 318 319 317 318 318 318 316 317 317 316 316 316 317 316 317 318 319 320 321 321 320 320 319 318 316 315 315 314 314 315 315 314 313 313 312 312 310 309 307 306 305 297 288 286 287 285 287 289 297 299 300 303 303 304 305 306 305 305 306 305 303 302 303 304 304 304 304
324 324 323 322 321 321 321 320 320 319 318 318 319 318 317 317 317 316 316 315 314 315 315 316 315 316 318 317 317 317 317 318 317 317 317 318 319 319 319 319 317 317 316 315 315 314 314 314 313 313 312 311 311 310 310 308 308 306 294 289 287 286 286 290 297 290 288 292 298 299 301 303 305 306 306 306 305 303 301 302 304 304 304 304 304
Wind_Speed
18 16 15 16 16 16 16 15 16 14 14 14 13 13 12 11 11 10 10 10 11 12 11 11 11 11 12 11 12 11 11 11 11 9 8 7 6 7 6 4 6 6 5 6 6 6 6 6 6 6 6 5 4 5 6 6 5 4 3 4 5 4 5 5 7 8 9 8 8 9 9 9 8 7 9 8 8 7 8 8 8 8 8 8 9
18 17 16 15 17 16 17 16 15 14 15 14 14 13 12 11 11 10 12 12 13 14 13 12 12 13 12 12 11 11 12 12 11 10 10 8 7 7 6 5 5 6 5 6 6 6 6 7 7 7 6 6 6 6 6 6 5 4 4 4 5 5 4 6 7 8 10 8 9 9 9 9 9 6 8 8 8 8 9 8 7 8 8 8 8
18 16 16 16 17 16 16 15 15 16 17 15 16 15 13 12 12 14 14 14 13 14 15 14 13 13 12 12 12 11 10 10 10 10 9 9 8 8 8 7 7 7 8 8 8 7 8 7 8 7 6 6 6 6 6 6 5 5 5 5 5 6 6 6 7 9 10 9 8 9 8 8 9 9 8 8 8 8 9 9 9 8 8 8 8
19 18 17 17 18 17 16 15 17 18 17 15 16 16 14 14 15 15 15 13 14 14 15 15 14 14 14 13 12 11 11 11 11 11 12 11 9 8 6 6 7 8 8 8 8 8 8 8 7 7 7 7 6 6 5 5 5 5 6 5 5 6 6 7 7 8 9 10 9 9 8 8 8 9 8 8 9 8 8 8 9 10 10 9 9
19 19 19 20 19 17 18 17 17 18 18 16 18 18 18 17 15 16 15 15 15 15 14 14 14 15 14 14 13 13 13 12 12 12 11 10 10 9 7 8 9 9 8 8 8 8 8 8 7 7 7 8 7 6 6 7 6 6 6 6 6 6 6 7 7 8 9 11 10 9 9 9 8 9 9 9 9 9 9 9 9 9 9 10 10
20 19 19 19 18 20 19 17 18 19 19 18 19 20 18 16 15 15 16 16 16 16 16 14 14 15 15 14 14 14 12 12 11 11 12 10 9 9 9 9 9 9 9 10 9 9 8 8 8 8 8 8 7 7 6 7 6 6 7 7 6 6 7 7 7 8 9 9 10 11 8 9 7 8 9 9 10 10 9 9 9 9 9 10 10
17 19 19 19 18 19 19 18 18 19 17 16 16 17 17 17 17 17 17 17 17 16 16 16 14 15 15 15 15 15 14 13 11 11 11 11 10 10 11 11 10 9 9 10 10 9 9 8 8 8 8 8 9 8 7 7 6 7 7 7 7 6 7 8 8 9 9 9 9 9 10 9 9 9 8 9 10 10 11 10 9 8 8 9 10
17 17 18 17 17 18 17 18 18 17 15 15 17 17 17 16 15 14 15 17 17 17 17 17 15 15 15 15 15 14 13 13 12 11 10 11 11 11 11 10 10 10 9 9 10 9 9 9 10 9 8 9 9 8 7 7 6 8 6 6 6 7 8 7 8 9 9 9 10 10 9 9 9 9 9 9 9 9 8 9 10 10 10 9 10
17 17 16 16 15 16 15 14 13 14 16 17 17 17 16 15 14 14 15 16 14 16 17 18 17 16 15 15 15 13 12 13 11 11 10 11 12 12 12 11 10 9 9 10 9 9 8 8 8 10 8 7 9 8 7 2 3 5 6 8 8 8 8 7 8 8 9 9 10 9 10 10 9 9 8 8 9 10 10 10 11 11 10 10 9
15 16 16 14 14 14 14 13 13 14 15 16 15 15 16 16 16 16 16 17 14 14 15 16 17 17 16 16 15 13 11 10 12 14 12 11 12 11 10 10 10 9 9 9 9 9 9 9 9 8 9 5 3 4 2 2 4 6 7 8 8 8 7 8 8 9 9 9 10 10 11 11 10 10 10 10 10 11 11 10 11 10 10 11 10
16 15 14 14 13 13 13 13 13 15 15 15 14 14 14 14 12 11 13 14 13 12 14 15 15 15 16 15 16 13 12 11 15 14 15 14 12 12 11 10 10 9 9 8 8 8 8 9 8 6 5 5 2 3 2 4 7 10 12 12 9 7 8 9 9 9 10 10 10 10 11 12 11 10 10 11 11 11 11 9 9 10 10 10 11
16 14 14 14 13 14 13 13 13 14 14 14 14 13 12 11 10 10 10 12 11 12 13 14 14 13 13 14 15 14 13 13 14 15 15 15 12 11 11 10 10 9 9 8 8 7 7 7 8 3 3 3 2 3 4 6 10 13 12 12 12 11 9 8 8 9 9 10 11 10 10 10 9 9 10 10 10 10 10 10 9 10 11 11 10
15 14 14 14 14 13 13 14 14 13 14 13 12 12 11 10 10 11 12 12 11 11 12 13 13 13 13 15 15 13 12 13 14 15 16 15 14 11 9 9 9 9 8 8 7 7 2 3 2 2 2 6 4 6 6 7 9 9 11 14 11 11 12 13 14 12 9 11 12 12 10 10 11 9 8 9 9 11 10 9 9 10 10 12 11
15 15 14 14 14 13 14 14 14 13 12 11 11 12 12 12 12 11 11 11 11 11 12 12 11 12 11 12 11 11 12 11 15 15 16 16 15 12 11 10 9 8 8 7 6 4 8 1 3 2 2 3 5 7 8 8 6 4 4 4 6 10 13 17 18 19 15 10 10 11 10 8 8 8 9 9 10 10 10 12 12 13 12 13 14
14 14 14 13 13 13 14 14 14 13 12 12 10 11 12 11 11 10 10 11 10 10 12 12 11 11 12 11 11 11 11 15 18 18 17 17 17 13 11 10 9 8 8 7 6 6 8 4 6 6 5 5 7 6 7 7 4 3 3 5 8 12 13 11 9 9 9 9 10 12 12 12 11 9 7 8 10 10 10 12 12 12 13 14 14
14 13 13 13 13 13 14 13 13 13 13 12 12 13 12 11 11 10 9 9 9 10 10 11 11 12 12 12 11 11 11 15 18 18 17 16 15 9 10 9 9 9 8 7 7 5 7 9 8 9 7 8 6 7 8 7 6 5 5 8 11 12 11 9 6 7 10 10 10 10 9 8 7 8 8 8 8 9 10 11 11 12 13 13 15
14 14 13 14 14 13 13 14 14 14 13 13 12 11 9 10 11 10 10 9 10 11 11 12 12 12 13 12 12 10 9 12 18 19 18 17 12 10 10 9 9 9 7 6 5 4 5 6 7 7 7 7 8 9 7 5 6 7 8 8 8 10 9 9 8 14 13 11 10 10 10 10 12 11 11 12 10 9 8 9 10 12 14 14 14
13 13 13 13 13 13 13 13 13 13 13 13 11 10 10 9 9 9 11 11 10 10 11 11 11 11 12 12 11 9 8 10 16 17 16 17 15 11 9 9 9 7 7 6 6 6 6 10 8 6 5 5 6 7 6 4 4 5 6 8 9 9 9 9 9 5 10 10 11 11 11 11 11 12 13 14 16 12 8 10 12 11 12 13 13
13 13 12 12 12 12 12 12 12 12 12 12 11 10 10 9 8 9 10 10 10 9 10 10 10 10 12 12 11 12 10 9 15 15 17 18 14 9 9 9 8 7 6 6 6 5 5 6 6 6 6 4 9 8 7 5 5 5 6 7 8 9 9 10 10 10 8 7 6 6 7 9 9 9 11 19 22 17 12 13 12 11 12 11 14
12 12 11 12 12 11 11 11 11 12 12 11 10 9 9 9 9 9 9 8 9 10 9 9 9 8 8 8 8 8 9 6 14 17 17 18 18 9 8 8 8 8 7 6 6 5 4 4 7 11 9 10 11 9 7 6 4 4 5 6 8 9 7 6 7 8 8 8 9 9 10 11 12 12 12 11 9 12 13 12 11 11 12 14 14
12 12 11 12 12 11 10 11 11 11 11 10 10 10 9 9 9 8 8 7 6 6 8 10 10 9 10 9 9 11 8 10 10 17 16 17 17 8 7 6 6 7 6 5 4 5 5 5 5 9 12 10 10 9 6 5 2 3 5 5 3 3 6 8 8 9 8 8 9 10 10 10 10 11 11 10 12 11 10 11 11 11 12 13 13
11 11 11 11 11 10 10 10 10 9 9 9 9 8 9 9 9 10 8 6 5 7 8 9 9 9 10 10 10 10 11 15 9 13 16 12 10 9 7 7 5 7 6 6 6 5 5 4 5 7 12 11 9 8 6 5 4 3 0 5 1 4 4 7 7 7 7 8 9 9 10 11 11 11 12 12 11 10 10 10 10 12 13 13 13
12 11 11 10 10 10 9 11 9 8 9 9 10 10 8 9 9 9 7 6 7 9 9 9 9 9 8 7 6 5 5 7 15 9 8 13 17 17 9 5 8 8 8 7 7 5 5 5 5 12 11 11 9 8 7 4 4 3 1 3 2 4 6 5 6 6 7 8 8 9 9 11 12 11 11 10 9 9 9 10 12 14 13 13 13
11 10 10 10 9 9 9 9 9 9 10 10 10 10 9 8 7 8 8 7 9 9 9 9 8 9 9 7 6 6 6 6 9 13 13 16 11 9 7 10 9 4 5 5 6 7 7 5 7 12 11 10 9 6 4 3 1 6 3 1 3 4 5 5 6 7 8 10 10 10 11 11 12 11 9 9 9 9 10 11 12 13 12 11 13
10 10 9 9 9 9 10 8 8 8 9 8 9 9 9 9 8 8 8 8 8 7 8 8 9 9 9 8 7 6 7 7 6 9 12 8 11 9 7 10 8 5 6 6 3 4 9 14 14 11 9 7 7 3 3 5 7 8 5 3 5 5 5 5 6 8 10 10 10 10 11 10 9 9 8 9 10 10 11 10 11 11 12 12 12
10 9 8 7 7 8 9 10 9 8 9 7 8 8 9 9 8 7 7 8 8 9 9 9 9 7 6 7 6 8 8 6 5 5 8 9 10 13 11 9 7 4 3 4 11 13 14 14 14 12 9 6 4 4 4 4 9 9 10 8 6 6 6 7 8 8 9 10 10 11 10 9 9 8 10 10 10 10 9 10 10 10 10 10 11
10 10 10 9 8 7 7 7 7 8 7 7 7 8 9 7 7 7 8 9 10 10 10 9 8 7 7 6 8 9 8 7 7 7 8 9 9 6 4 4 3 3 4 5 7 7 9 9 7 7 7 7 5 4 5 7 7 7 7 7 7 7 6 8 6 6 7 10 11 9 9 9 9 10 10 9 9 9 8 9 10 10 10 10 11
13 12 12 10 8 7 6 7 8 8 7 7 7 8 9 8 8 8 9 9 9 9 9 8 7 7 8 7 7 8 8 9 9 10 10 9 7 6 6 6 7 7 8 7 6 9 8 9 10 7 7 6 6 6 7 7 7 6 6 6 6 7 8 6 2 6 7 8 8 9 10 9 10 10 9 9 9 9 9 9 9 10 10 11 11
11 13 12 11 10 8 7 8 7 7 7 7 9 8 4 2 6 5 9 6 5 2 4 5 5 5 7 8 8 7 7 10 9 6 6 8 9 9 8 8 7 8 5 9 8 9 8 8 5 6 6 5 5 6 6 5 6 7 7 7 6 6 7 7 8 6 7 8 8 8 9 10 10 9 9 9 9 9 8 9 9 10 11 10 11
11 11 10 9 10 9 7 8 8 8 8 8 7 7 10 13 10 4 6 6 9 10 11 4 2 4 7 5 3 6 7 6 12 14 13 11 7 4 3 4 7 7 5 2 7 7 5 4 5 5 4 4 5 6 6 6 6 7 7 7 6 7 8 7 7 7 8 8 7 8 9 10 9 9 9 9 9 9 9 9 9 9 10 10 11
9 9 9 9 10 10 9 9 8 8 7 9 8 8 7 9 14 14 10 8 10 12 11 10 12 10 6 8 8 13 11 14 14 14 14 11 11 10 10 11 12 10 6 4 3 4 4 5 5 5 6 6 6 5 6 7 7 6 6 5 6 7 7 8 8 7 6 4 7 9 10 9 9 9 9 9 10 10 10 9 9 9 10 10 11
8 8 8 10 8 7 9 9 9 9 8 6 7 8 6 7 7 12 12 12 13 13 12 12 12 14 15 11 8 6 9 11 15 14 13 13 12 11 11 11 9 9 5 4 2 4 4 4 5 6 6 6 5 7 7 7 6 6 6 7 6 7 6 7 6 5 4 7 9 10 9 8 8 9 9 9 9 10 10 9 9 10 10 10 10
9 9 11 11 10 9 10 9 9 9 8 8 7 7 8 6 6 4 6 11 13 13 13 13 13 13 13 13 12 10 10 10 14 14 13 13 13 12 12 10 8 4 3 2 4 3 4 5 6 5 5 6 6 7 6 5 6 7 7 7 8 8 8 4 6 6 6 8 8 8 8 8 8 8 8 9 9 10 10 10 9 9 10 10 10
8 9 10 11 11 10 9 9 9 9 8 7 7 7 7 7 6 6 6 5 6 9 13 13 12 11 13 12 12 13 13 13 13 13 13 13 13 11 11 6 5 7 5 2 3 4 5 6 7 7 6 6 6 5 4 4 4 6 6 7 7 9 8 7 7 6 7 7 7 7 7 8 7 8 8 9 9 9 10 10 10 9 9 10 11
9 12 14 10 9 9 9 8 8 7 8 7 8 7 8 8 8 8 7 7 6 6 6 6 10 13 7 7 9 11 12 13 13 13 13 13 13 13 12 6 4 3 2 3 4 5 5 7 6 5 6 5 3 3 4 6 6 6 6 6 9 10 8 7 7 7 7 7 7 7 7 7 8 8 8 9 9 9 9 10 10 9 10 10 11
10 9 9 9 8 7 7 6 6 7 7 7 7 7 7 9 9 8 8 7 6 7 6 6 6 9 14 12 10 10 12 11 11 11 12 12 14 13 7 6 5 5 5 5 4 4 4 5 5 4 4 3 2 3 5 6 7 6 6 9 9 6 5 7 7 7 5 5 7 8 8 7 7 7 8 8 9 10 9 10 10 10 10 10 10
9 8 8 7 7 7 6 6 5 6 6 6 6 6 7 7 6 7 7 7 7 7 7 8 8 8 8 7 9 11 10 10 8 8 6 7 7 5 5 6 5 5 6 5 4 4 4 4 3 3 4 4 3 5 6 7 7 6 4 6 8 7 7 8 6 6 6 7 7 7 7 7 7 8 8 9 9 9 9 10 10 10 10 11 12
8 8 7 7 7 7 6 6 7 8 5 5 5 5 6 6 7 7 6 7 8 8 8 8 8 8 8 7 6 5 7 8 9 7 4 2 3 5 6 5 6 6 5 3 4 4 4 3 3 3 3 4 5 6 6 7 8 8 9 10 10 6 7 7 7 7 7 7 7 7 6 7 7 7 7 8 9 9 9 10 10 10 10 10 10
8 12 12 8 6 6 6 6 6 6 6 6 6 6 6 6 6 6 6 6 7 7 8 8 7 7 8 8 8 8 9 7 7 7 7 7 7 7 6 6 5 4 3 2 4 4 4 4 4 4 4 4 4 5 6 6 6 7 6 6 6 7 6 6 6 6 6 6 6 5 6 6 7 7 7 8 9 9 10 10 10 10 10 10 10
8 7 6 5 5 5 6 6 6 6 6 4 5 5 5 5 5 6 5 6 7 7 7 8 8 8 9 10 9 9 8 8 8 8 8 8 7 7 6 6 5 2 2 4 3 5 5 4 4 4 3 3 5 5 5 6 7 7 7 6 6 6 6 6 6 5 5 5 5 6 6 6 7 7 7 8 8 9 10 10 10 10 10 10 10
6 7 6 3 4 5 5 6 6 5 5 4 4 4 4 5 5 5 6 6 6 6 7 7 7 8 10 10 13 13 8 8 8 8 8 7 6 7 6 5 5 4 4 5 5 4 5 5 4 4 5 5 6 6 6 6 6 6 6 6 6 6 6 6 5 5 5 5 5 6 6 6 6 7 8 8 9 9 9 9 9 9 9 10 10
6 6 6 6 6 5 6 5 5 5 4 4 4 4 5 5 5 5 5 5 5 5 5 5 5 7 12 17 15 14 8 6 7 7 7 7 7 6 6 6 4 4 4 5 5 5 5 4 4 4 4 5 5 4 5 6 6 4 6 6 5 6 6 5 4 4 4 5 5 5 5 6 7 8 8 9 8 8 9 9 9 9 9 10 10
6 6 6 6 6 5 5 6 5 6 6 5 5 4 4 4 5 5 5 4 4 4 3 4 4 8 10 13 14 14 8 7 6 7 6 6 7 7 6 5 4 4 4 3 3 4 4 5 4 4 4 5 5 5 6 6 3 5 6 6 5 5 5 5 5 4 4 4 4 5 6 7 7 7 7 8 7 8 8 9 9 9 9 10 9
6 6 6 5 5 5 6 6 6 5 5 6 6 5 4 4 3 4 4 4 3 3 3 4 6 7 7 7 8 8 8 9 8 7 6 6 7 7 5 5 5 5 5 6 5 5 4 4 5 5 5 5 4 5 6 3 5 5 5 5 5 5 4 5 5 5 4 4 5 6 6 6 7 7 7 7 8 8 9 8 9 9 9 9 9
5 5 6 6 6 6 6 6 7 7 7 6 4 4 3 2 2 1 2 3 3 2 2 2 6 7 6 7 7 8 8 9 8 7 7 7 7 7 7 7 7 6 6 5 5 4 4 5 5 5 6 6 3 6 5 2 6 5 5 5 5 4 4 3 3 3 4 5 5 5 6 6 7 7 7 7 8 8 8 8 9 9 9 9 9
4 5 5 6 6 6 6 6 6 5 5 3 3 3 3 3 3 3 3 3 3 3 3 3 3 4 5 5 6 7 8 8 8 7 6 7 7 6 5 6 7 7 6 5 5 5 5 5 5 6 6 6 3 6 4 2 5 5 5 4 4 4 3 4 3 3 4 4 5 5 6 6 7 7 8 7 7 8 8 8 8 9 9 9 9
4 5 6 6 6 6 6 5 5 4 4 4 3 3 3 3 4 3 2 2 1 4 5 6 5 4 4 5 5 5 6 7 7 7 7 7 7 6 6 6 6 6 6 6 6 6 5 5 5 7 6 5 3 7 6 4 4 5 5 4 4 4 1 3 3 4 5 5 5 5 6 6 7 7 7 7 7 7 8 8 8 9 9 9 9
4 4 4 5 5 5 5 4 5 4 4 4 4 5 4 4 4 4 5 4 4 3 3 3 3 3 5 6 5 5 6 6 6 6 6 7 7 7 7 7 6 6 6 4 3 4 4 5 6 6 7 3 5 3 3 4 6 4 4 3 2 6 6 5 4 5 4 5 6 6 7 7 7 7 7 7 7 7 8 7 8 8 9 9 8
3 3 4 4 4 5 4 4 5 5 5 4 4 3 4 4 4 4 3 3 2 3 2 3 4 6 6 5 4 5 6 7 6 6 6 6 6 7 7 7 7 6 5 5 5 4 5 5 6 6 4 6 6 4 4 5 6 5 5 4 7 10 10 7 4 4 6 6 6 7 7 8 7 6 7 7 7 7 7 7 7 8 9 8 8
4 4 4 4 4 4 5 5 6 5 5 5 5 5 5 2 3 4 4 3 3 3 3 3 4 4 3 5 5 5 6 6 6 6 6 6 6 5 5 7 6 7 7 6 6 6 6 5 6 5 5 5 2 3 5 5 5 6 4 8 9 10 8 4 2 4 4 4 6 6 6 7 7 6 6 6 6 7 7 7 8 8 8 8 8
4 4 4 4 4 3 3 4 3 2 4 5 5 5 2 3 2 1 1 1 2 2 1 3 4 4 4 3 5 5 5 5 6 6 5 6 6 7 7 7 8 6 6 6 6 6 4 3 4 4 4 5 5 5 5 6 4 6 10 11 10 9 6 2 1 4 2 5 5 6 6 7 7 6 6 5 5 6 7 8 7 8 8 8 7
Wind_Direction
187 189 191 195 193 190 191 193 194 194 193 193 194 197 196 196 192 200 184 186 176 177 179 182 182 185 187 187 186 187 187 191 188 184 185 185 206 224 236 222 212 221 224 242 250 262 250 247 251 259 268 270 263 266 270 267 254 247 249 259 274 279 280 283 285 287 291 300 302 302 305 305 291 287 289 280 277 275 260 260 262 265 265 265 270
190 187 191 193 193 191 191 191 192 191 192 190 192 193 195 194 187 189 181 183 181 179 180 184 185 186 190 186 191 193 192 189 188 185 185 189 200 209 217 217 225 228 234 228 238 243 241 241 245 249 251 254 249 250 248 256 266 282 276 268 272 274 255 267 271 276 283 291 292 297 298 299 294 289 285 287 283 281 279 276 270 267 266 269 273
190 187 190 191 192 190 190 190 189 190 192 192 194 195 192 193 186 188 183 185 184 181 182 186 184 185 190 188 192 193 198 193 191 186 182 191 200 211 209 204 208 222 221 227 232 232 236 240 246 248 243 246 246 245 248 260 271 271 272 269 267 272 274 267 273 279 286 287 285 288 292 299 296 299 293 288 287 281 279 280 276 272 270 270 273
189 188 190 191 189 188 190 189 190 190 191 192 195 196 194 191 190 189 187 188 186 187 184 182 181 184 189 189 187 196 195 196 195 191 185 189 198 209 210 203 211 215 227 230 224 223 232 240 246 255 262 258 251 245 245 253 264 263 268 271 265 268 275 277 276 284 286 289 287 290 293 293 294 297 297 289 284 285 284 284 277 276 279 281 280
190 189 192 191 188 189 190 191 191 191 193 194 194 196 198 191 191 192 191 196 190 187 182 181 180 183 187 184 189 197 195 195 193 195 193 190 197 200 199 208 212 217 226 229 231 234 239 244 248 247 246 252 254 253 253 261 264 269 273 268 265 274 278 285 290 287 287 287 288 285 290 290 291 291 292 296 295 286 283 276 277 278 279 281 281
193 189 192 193 189 188 191 190 192 195 194 196 198 199 198 189 190 193 195 198 192 189 182 183 181 181 182 184 192 193 193 195 195 197 196 191 195 201 204 210 212 215 218 226 229 230 234 241 250 255 257 255 252 250 256 261 262 265 268 271 279 284 281 281 286 290 289 285 289 296 295 297 301 294 294 293 294 295 290 285 277 280 280 279 280
193 191 192 195 190 189 189 190 192 192 190 196 199 199 198 194 197 197 197 199 192 190 188 183 181 181 183 186 192 190 192 197 201 203 199 191 193 199 205 206 214 214 219 227 231 230 232 236 243 249 254 254 255 254 258 261 263 267 272 280 280 281 288 291 291 291 288 287 286 287 293 291 290 293 295 296 291 289 296 295 291 292 287 289 284
194 193 189 193 189 191 192 190 189 189 189 191 196 199 201 204 205 200 202 203 199 192 187 182 180 182 184 187 186 185 187 195 204 205 203 195 196 201 204 209 210 214 220 226 233 236 236 239 243 240 237 243 248 257 255 258 260 267 268 272 278 280 281 282 284 289 291 291 287 291 289 292 289 284 291 288 288 286 283 291 293 297 296 288 286
192 193 188 190 188 190 190 190 189 186 185 189 195 195 198 203 204 202 201 205 201 194 188 184 180 181 182 184 184 183 188 198 202 200 199 200 202 201 204 207 211 214 220 227 227 232 241 253 261 257 248 230 246 253 257 293 285 288 290 285 282 282 284 281 280 285 289 288 288 288 294 296 295 294 292 293 294 299 302 299 296 293 291 291 289
187 190 189 187 185 186 186 183 181 180 185 194 197 191 195 199 202 204 199 201 199 191 189 189 186 181 181 183 185 186 192 197 203 203 203 201 200 202 201 205 210 214 219 227 237 240 240 240 244 249 260 278 147 153 197 246 260 273 279 281 282 279 275 281 283 286 288 288 289 295 295 292 295 298 298 294 294 292 293 300 297 297 296 291 286
183 185 185 184 182 179 177 178 180 182 187 192 195 194 197 200 197 182 182 190 194 189 192 191 187 180 179 179 184 189 193 200 197 200 207 212 205 204 203 201 204 213 220 225 239 244 246 242 247 244 72 64 321 312 273 256 259 259 258 257 261 269 271 271 274 283 287 290 292 292 292 295 294 297 297 300 301 305 307 306 298 298 298 299 295
181 181 181 178 177 173 173 173 175 179 180 186 192 192 193 192 187 181 185 191 192 191 193 188 187 180 183 186 189 193 196 196 187 194 206 212 218 212 205 205 202 206 215 224 230 238 243 239 244 174 152 152 204 276 276 266 259 256 263 260 253 248 245 249 266 274 276 282 287 289 290 288 295 296 296 304 312 312 305 300 295 296 295 291 289
174 178 177 175 172 170 169 170 173 176 181 184 187 189 190 180 180 181 187 189 191 187 184 184 183 183 184 189 193 194 202 187 186 193 202 206 215 232 220 215 212 208 216 221 224 234 243 38 44 110 134 155 206 240 263 264 247 232 246 260 262 254 245 240 239 248 263 265 280 283 282 292 293 294 309 318 318 303 304 298 299 297 294 290 286
173 176 175 174 168 168 170 174 176 177 178 180 188 194 196 192 189 189 190 190 191 187 187 185 181 182 184 185 189 196 206 178 185 194 198 200 206 212 233 233 225 221 221 228 231 221 108 152 313 278 220 219 253 257 259 252 239 254 259 256 260 250 240 240 241 240 241 252 263 277 279 279 280 292 302 309 309 304 304 298 299 295 292 290 296
171 172 174 173 170 169 174 178 179 183 180 188 189 199 202 201 195 190 193 196 192 187 189 188 185 183 181 183 188 200 209 179 184 190 194 196 200 202 222 229 229 223 221 224 227 223 134 166 205 235 239 243 245 234 251 250 195 219 252 286 285 277 266 260 240 224 224 227 239 246 267 275 276 287 302 310 306 301 297 296 293 288 289 290 286
169 171 174 175 174 174 175 178 178 184 195 194 194 203 211 209 205 201 200 196 193 191 193 194 186 187 187 187 192 196 211 170 183 183 187 195 190 199 216 222 222 221 214 216 216 213 163 178 196 218 222 232 214 228 248 249 222 201 239 249 250 257 269 273 257 269 271 270 273 283 287 302 328 300 294 294 294 286 286 285 287 291 292 288 287
171 170 172 175 175 173 174 174 179 181 189 190 195 199 201 214 217 215 209 201 193 194 193 193 192 190 188 189 197 200 212 169 175 179 185 187 177 205 211 212 212 209 206 201 205 175 189 188 191 198 220 232 224 218 203 209 240 250 254 255 262 269 268 279 218 217 223 218 242 258 263 260 262 268 270 262 253 267 281 284 278 287 290 290 291
172 170 172 172 172 171 173 174 175 180 180 190 186 196 197 203 213 209 216 215 208 203 200 197 191 190 190 192 194 197 212 166 173 175 176 175 186 201 201 204 202 188 183 181 168 177 191 195 186 204 205 234 170 177 164 184 227 244 256 265 270 270 273 278 287 257 202 217 230 241 248 254 256 252 251 253 253 245 237 248 270 288 284 286 287
171 169 170 168 168 168 168 168 170 174 180 186 194 188 191 196 204 202 211 219 224 218 218 215 202 194 196 201 194 198 212 168 171 169 173 180 190 209 198 201 192 189 178 176 181 189 181 173 190 208 227 160 154 160 175 198 222 245 262 269 269 271 275 292 296 301 306 290 258 258 264 245 245 246 241 235 241 238 228 237 250 265 276 274 284
167 166 164 161 160 162 163 162 167 168 176 183 189 187 185 197 200 205 210 211 220 221 213 218 198 181 179 192 204 206 214 179 173 174 179 184 195 202 198 202 203 180 179 175 169 150 157 196 197 216 187 156 160 163 178 205 221 239 259 265 269 279 329 320 301 304 301 295 290 289 286 285 283 286 288 281 248 221 220 227 238 253 268 284 291
159 157 157 156 155 156 154 158 162 165 170 178 184 187 187 194 199 197 205 206 211 209 206 225 218 207 205 208 222 230 227 236 176 173 180 187 194 203 192 206 199 197 157 141 153 173 190 210 226 185 163 154 156 165 175 186 213 255 247 270 336 352 316 295 297 305 296 293 285 277 278 289 298 294 296 298 288 302 320 303 297 292 290 293 298
148 148 148 147 145 148 149 155 163 163 170 179 179 178 183 192 194 191 194 192 193 191 211 225 227 220 217 217 225 229 235 234 150 179 178 166 156 224 231 195 189 167 159 176 189 197 205 182 207 146 151 155 154 162 167 167 185 235 241 76 59 342 322 291 288 286 287 294 293 293 293 293 298 300 287 289 310 316 300 299 304 309 303 298 294
137 139 140 140 143 147 146 148 157 159 170 173 182 182 173 183 170 160 165 170 191 201 209 216 219 219 209 203 195 192 97 116 143 143 137 163 194 195 220 165 151 179 181 180 183 191 212 215 127 141 145 144 150 158 164 153 175 240 257 20 5 317 284 275 287 293 288 287 289 289 288 287 290 297 310 314 299 297 304 304 302 297 293 289 282
129 131 133 132 136 142 142 153 156 162 165 175 178 177 180 177 161 155 153 183 198 201 204 209 217 216 216 195 188 145 128 109 125 139 160 176 197 199 199 146 158 181 189 177 185 193 201 161 133 133 130 139 146 145 139 166 279 38 357 327 284 278 281 285 276 272 270 268 277 292 298 301 301 298 296 302 304 307 306 298 289 285 283 286 286
124 128 133 137 146 147 148 156 159 169 173 176 158 166 168 167 160 165 157 186 200 207 207 204 205 210 209 197 181 167 153 138 138 154 149 163 169 177 143 138 170 155 180 202 165 85 100 110 117 117 123 124 123 143 191 215 231 250 260 265 264 273 270 277 282 270 275 287 294 293 292 300 303 298 298 305 310 304 291 286 286 286 286 285 284
129 126 123 124 144 157 155 155 157 164 159 156 161 163 168 171 167 162 178 189 202 211 216 213 218 215 200 190 178 166 148 136 121 117 136 158 185 189 165 157 159 200 298 114 120 127 118 117 117 121 131 138 177 192 230 194 194 213 233 235 256 261 256 262 264 274 291 294 295 299 304 297 295 309 315 304 292 290 292 289 291 294 298 300 300
125 130 138 148 156 164 157 154 156 152 144 142 157 166 158 152 149 176 191 201 205 212 210 207 207 206 189 165 157 155 163 156 150 154 170 174 187 171 147 153 141 143 151 144 133 118 129 129 128 122 105 158 215 322 329 131 174 199 222 220 238 259 246 235 262 299 306 303 297 295 293 300 305 301 291 291 288 286 291 296 298 300 304 305 301
143 145 144 142 150 155 159 129 154 153 150 163 166 162 159 166 165 180 196 207 216 212 220 222 210 187 181 161 165 169 173 174 175 179 182 179 173 163 173 167 173 191 193 177 183 145 138 126 133 159 152 173 182 205 216 213 226 224 230 256 245 240 270 303 181 248 255 250 270 290 295 296 295 296 299 296 296 298 300 299 300 301 300 301 297
141 138 138 141 137 140 148 162 166 143 135 77 50 34 20 135 179 134 45 26 13 345 248 199 184 168 154 154 165 178 185 189 195 170 149 156 166 171 177 180 184 191 228 177 171 150 156 165 176 173 194 216 250 268 277 265 232 233 249 239 247 254 243 273 297 276 253 271 299 314 301 295 294 297 296 295 296 299 299 298 299 297 294 292 292
142 140 142 142 135 144 158 169 147 152 150 132 107 86 61 57 29 57 87 45 49 41 36 63 65 165 142 158 168 176 198 189 104 109 120 119 111 88 109 164 191 182 106 118 182 178 190 211 223 226 247 253 254 264 265 258 266 266 239 237 260 273 281 268 248 267 281 292 320 298 294 298 293 295 298 299 300 298 303 300 293 290 292 294 296
145 137 140 142 140 152 160 157 154 164 153 162 153 133 124 67 51 48 63 58 47 46 51 48 40 37 142 146 81 63 71 98 109 110 101 90 86 82 88 90 92 96 109 132 197 228 239 248 255 263 257 256 256 253 261 271 272 276 277 286 281 277 275 284 297 305 334 347 297 295 293 290 295 296 296 299 304 305 301 295 295 296 297 302 303
143 143 152 119 119 159 144 148 157 148 147 145 155 168 153 122 82 44 43 60 56 50 43 42 44 54 56 69 106 86 65 95 115 113 106 98 91 87 76 72 68 66 40 11 226 230 248 256 256 262 266 267 270 269 268 270 278 279 288 285 276 279 297 297 42 15 332 304 299 291 292 293 290 292 298 303 301 298 301 306 305 302 305 306 305
150 158 126 130 154 156 145 153 158 149 145 150 156 161 169 161 120 108 49 56 70 67 55 45 46 49 62 63 63 96 117 126 122 121 115 108 102 95 89 70 61 39 94 146 238 246 247 259 267 269 256 249 254 261 268 280 282 282 278 280 283 287 276 349 52 336 318 290 287 285 281 283 288 298 302 301 303 305 307 303 305 308 308 310 311
123 118 137 156 155 155 149 150 150 142 147 152 150 160 173 169 151 141 138 140 105 79 66 55 49 62 61 70 94 104 116 121 117 117 120 117 116 110 98 88 69 33 23 255 230 238 247 252 263 274 280 284 279 286 291 297 298 283 296 291 295 283 311 342 300 284 274 271 275 292 294 292 306 309 305 302 302 304 305 309 309 312 316 316 313
120 129 141 146 146 144 144 147 142 140 145 151 153 161 159 169 172 174 177 170 165 150 147 91 45 30 55 69 83 108 116 116 123 128 127 128 125 130 124 123 135 175 204 225 236 254 260 266 274 272 260 273 313 338 321 304 285 275 289 314 289 301 344 308 294 296 301 297 291 284 295 310 305 296 297 302 307 308 309 310 314 317 317 314 314
130 133 134 138 136 133 131 135 132 140 143 148 159 158 159 166 172 173 173 172 161 142 131 100 87 68 69 65 73 91 101 110 123 134 139 143 156 155 162 184 182 188 193 191 223 235 256 275 280 275 277 274 304 295 275 279 281 281 258 264 302 337 311 301 295 294 304 305 297 293 292 289 292 300 303 304 307 309 310 314 317 318 314 314 320
136 135 138 133 131 130 126 125 135 130 134 145 154 155 157 160 172 180 182 174 156 139 123 123 123 113 104 91 84 77 82 96 105 114 141 165 185 212 221 199 199 180 203 202 213 238 253 266 296 294 275 275 276 256 255 257 265 252 234 218 222 257 288 285 311 329 308 290 288 289 291 293 300 302 307 308 310 309 310 318 317 313 315 314 309
135 137 137 128 123 119 127 126 109 107 140 146 149 160 157 163 172 175 168 157 147 135 141 148 147 139 135 126 144 130 111 112 115 103 105 119 206 220 236 230 216 224 247 217 231 248 250 253 266 260 259 256 260 273 277 276 278 299 325 341 353 299 236 263 272 264 259 260 266 278 288 298 302 306 309 310 310 311 319 321 317 316 316 316 317
80 72 75 88 122 137 132 128 138 158 152 161 158 168 164 164 169 161 166 152 147 147 144 151 155 149 141 143 144 133 139 149 167 167 172 184 196 214 226 225 233 238 260 155 191 229 245 237 231 232 238 252 273 274 293 311 309 283 276 287 297 303 269 249 248 239 248 268 281 301 305 303 306 309 312 308 309 320 323 315 314 318 318 320 321
121 125 109 110 146 130 140 145 160 163 163 169 162 161 150 160 164 158 158 156 161 151 154 157 161 156 151 157 153 165 179 173 181 178 180 188 200 212 218 227 234 191 201 261 227 210 231 238 228 227 209 241 259 265 265 269 283 291 292 271 264 262 261 262 271 274 274 292 307 299 296 303 310 311 310 307 317 320 308 312 316 317 319 320 320
136 127 142 175 97 140 145 155 162 156 156 154 138 159 158 160 166 167 167 164 152 150 151 163 163 152 158 165 165 180 188 184 190 184 180 193 198 206 214 219 238 224 203 220 226 219 224 232 222 226 250 248 243 251 269 300 294 300 289 275 260 255 270 277 279 281 284 286 290 296 302 308 313 316 310 312 308 301 311 315 317 321 321 323 324
137 144 158 147 146 163 156 165 132 120 127 139 141 143 142 149 151 154 153 151 153 161 169 170 162 149 149 159 167 197 219 211 198 201 204 205 213 215 213 225 218 209 225 218 214 223 241 245 254 261 282 291 294 296 273 268 283 293 270 266 262 262 263 269 272 290 307 294 286 294 309 315 307 294 294 299 307 318 318 319 322 320 324 326 325
135 140 141 147 155 139 130 120 127 137 139 141 132 123 141 151 154 148 159 173 167 181 187 183 132 122 148 164 174 190 226 235 226 212 213 208 211 215 214 215 213 206 217 232 234 228 207 233 243 248 257 269 280 282 280 286 305 267 268 268 272 273 274 273 281 284 278 291 299 315 310 298 299 309 312 310 317 318 319 317 322 324 328 324 329
133 131 135 133 127 132 133 142 144 136 121 109 123 141 150 154 157 178 187 184 194 205 196 207 129 137 143 162 170 190 217 229 234 232 226 214 207 214 196 197 208 204 197 219 230 236 238 231 232 218 226 244 257 275 279 316 292 276 271 277 280 276 278 285 289 292 303 314 321 307 298 304 305 303 307 319 324 319 314 324 324 328 327 325 331
123 125 126 131 132 132 123 118 113 115 125 138 152 138 153 157 168 190 223 211 181 223 235 217 131 145 152 168 183 203 211 224 234 229 219 215 211 203 202 206 204 208 213 205 210 215 247 263 270 250 210 197 225 267 283 296 266 268 266 264 271 269 261 275 301 334 333 310 300 303 307 307 313 310 314 323 319 314 319 329 326 324 325 328 330
135 137 136 133 134 139 141 132 128 136 154 158 152 166 185 189 199 192 213 214 197 206 207 205 184 178 181 185 193 201 212 226 230 227 226 226 232 227 214 202 208 212 222 240 235 214 234 239 238 251 266 281 268 256 266 225 256 257 267 265 258 265 297 305 298 297 305 308 308 307 308 307 309 311 311 310 314 319 323 324 322 329 327 326 329
131 133 135 142 140 135 125 135 157 145 147 149 162 167 182 187 175 181 172 54 312 206 195 188 189 192 203 216 220 222 225 223 231 230 229 231 231 221 206 198 197 212 223 225 241 239 214 238 267 293 284 235 198 249 242 242 249 240 230 233 231 246 335 10 10 351 322 317 312 306 313 311 303 300 311 320 319 318 323 322 330 328 328 325 324
175 176 176 162 152 152 144 161 131 165 169 174 187 181 171 157 169 185 166 169 202 222 242 233 227 222 207 204 197 204 211 230 236 240 233 234 231 223 206 214 221 213 225 226 227 245 242 237 240 249 264 307 252 262 101 232 250 254 242 228 55 64 55 24 326 307 331 336 319 308 298 295 299 306 317 316 311 318 316 328 331 333 326 323 326
187 169 170 178 165 153 159 154 161 189 163 157 135 154 151 183 175 178 166 164 166 182 224 243 231 222 224 217 219 231 211 204 213 232 223 218 227 234 215 205 210 214 222 217 217 215 220 250 260 264 225 230 236 193 209 224 235 230 228 97 85 81 69 38 335 359 346 304 278 282 281 285 297 308 308 304 312 317 322 329 333 327 319 321 327
170 167 161 160 162 165 166 165 184 178 152 168 166 167 149 194 184 203 211 216 239 239 236 213 222 247 269 270 260 256 254 248 234 223 222 214 193 185 186 207 212 223 230 228 209 191 197 227 246 262 260 270 261 193 226 229 218 226 112 96 105 96 91 78 274 318 311 287 298 296 301 297 297 301 310 306 317 323 327 333 325 320 319 321 333
174 159 172 184 176 168 166 173 187 182 157 213 182 243 196 184 262 359 79 214 258 279 296 306 312 307 283 256 241 247 250 256 264 264 242 227 206 194 202 205 208 222 241 248 249 246 224 205 219 215 248 254 253 234 228 231 218 105 109 120 114 108 117 309 315 120 12 317 289 284 280 290 298 300 299 311 327 327 329 311 312 319 320 322 336